Location: Hobi?a Gr?di?te
(45.4833°N, 22.7833°E)
Time: 10:30:23
(UTC+00:00)

SL-16 R/B - Pass Details

Date: 28 January 2023
Orbit: 842 x 846 km, 71.0° (Epoch: 20 March)

Event Time Altitude Azimuth Distance (km) Brightness Sun altitude
Rises 16:30:43 0° 164° (SSE) 3,384 5.3 -10.9°
Reaches altitude 10° 16:33:40 10° 149° (SSE) 2,455 4.4 -11.4°
Maximum altitude 16:37:50 22° 101° (E) 1,777 3.4 -12.1°
Enters shadow 16:40:10 17° 69° (ENE) 2,021 3.5 -12.5°
